Location: Newark
(35.8614°N, 139.6456°E)
Time: 08:33:26
(UTC+00:00)

Envisat - Visible Passes

Search period start: 10 December 2019 00:00
Search period end: 20 December 2019 00:00
Orbit: 764 x 766 km, 98.1° (Epoch: 10 December)

Date Brightness Start Highest point End Pass type
(mag) Time Alt. Az. Time Alt. Az. Time Alt. Az.
10 Dec 4.2 09:14:04 10° S 09:18:52 43° W 09:23:43 10° NNW visible
11 Dec 2.9 08:37:01 10° SSE 08:42:04 79° ENE 08:47:10 10° N visible
11 Dec 4.9 20:49:09 10° NNE 20:53:45 34° E 20:58:19 10° SSE visible
12 Dec 3.6 08:00:57 10° SE 08:05:28 34° ENE 08:10:00 10° N visible
12 Dec 5.3 09:40:27 10° SSW 09:44:29 24° W 09:48:34 10° NW visible
12 Dec 6.1 20:14:00 10° ENE 20:16:43 14° E 20:19:24 10° SE visible
13 Dec 3.7 09:02:36 10° S 09:07:34 56° W 09:12:34 10° NNW visible
14 Dec 3.0 08:25:50 10° SSE 08:30:49 61° ENE 08:35:50 10° N visible
14 Dec 6.1 10:07:58 10° WSW 10:10:12 13° W 10:12:26 10° WNW visible
14 Dec 5.4 20:38:10 10° NE 20:42:24 26° E 20:46:37 10° SSE visible
15 Dec 3.9 07:50:05 10° SE 07:54:16 27° ENE 07:58:28 10° NNE visible
15 Dec 4.9 09:28:42 10° SSW 09:33:09 31° W 09:37:37 10° NW visible
15 Dec 6.4 20:04:09 10° ENE 20:05:19 11° E 20:06:29 10° ESE visible
16 Dec 3.2 08:51:13 10° S 08:56:16 74° WSW 09:01:22 10° NNW visible
16 Dec 4.2 21:03:05 10° NNE 21:08:01 48° E 21:12:54 10° S visible
17 Dec 3.2 08:14:45 10° SE 08:19:35 47° ENE 08:24:27 10° N visible
17 Dec 5.8 09:55:36 10° SW 09:58:49 17° W 10:02:03 10° NW visible
17 Dec 5.8 20:27:17 10° NE 20:31:03 21° E 20:34:47 10° SE visible
18 Dec 4.4 09:17:05 10° SSW 09:21:49 39° W 09:26:34 10° NNW visible
19 Dec 2.9 08:39:56 10° SSE 08:45:00 87° ENE 08:50:06 10° NNW visible
19 Dec 4.7 20:51:59 10° NNE 20:56:42 37° E 21:01:22 10° SSE visible
